Probability
0 0 0 0 0 0 0 0 0 0 0 0 0 0 0 0 0 0 0 0 0 0 0 0 0 0 0 0 0 0 0 0 0 0 0 0 0 0 3 16 19 0 45
0 0 0 0 0 0 0 0 0 0 0 0 0 0 0 0 0 0 0 0 0 0 0 0 0 0 0 0 0 0 0 0 0 0 0 0 0 0 0 3 3 16 39
0 0 0 0 0 0 0 0 0 0 0 0 0 0 0 0 0 0 0 0 0 0 0 0 0 0 0 0 0 0 0 0 0 0 0 0 0 0 0 0 0 6 48
0 0 0 0 0 0 0 0 0 0 0 0 0 0 0 0 0 0 0 0 0 0 0 0 0 0 0 0 0 0 0 0 0 0 0 0 0 0 0 0 0 0 13
0 0 0 0 0 0 0 0 0 0 0 0 0 0 0 0 0 0 0 0 0 0 0 0 0 0 0 0 0 0 0 0 0 0 0 0 0 0 0 0 0 0 0
0 0 0 0 0 0 0 0 0 0 0 0 0 0 0 0 0 0 0 0 0 0 0 0 0 0 0 0 0 0 0 0 0 0 0 0 0 0 0 0 0 0 0
0 0 0 0 0 0 0 0 0 0 0 0 0 0 0 0 0 0 0 0 0 0 0 0 0 0 0 0 0 0 0 0 0 0 0 0 0 0 0 0 0 0 0
0 0 0 0 0 0 0 0 0 0 0 0 0 0 0 0 0 0 0 0 0 0 0 0 0 0 0 0 0 0 0 0 0 0 0 0 0 0 0 0 0 0 0
0 0 0 0 0 0 0 0 0 0 0 0 0 0 0 0 0 0 0 0 0 0 0 0 0 0 0 0 0 0 0 0 0 0 0 0 0 0 0 0 0 0 0
0 0 0 0 0 0 0 0 0 0 0 0 0 0 0 0 0 0 0 0 0 0 0 0 0 0 0 0 0 0 0 0 0 0 0 0 0 0 0 0 0 0 0
0 0 0 0 0 0 0 0 0 0 0 0 0 0 0 0 0 0 0 0 0 0 0 0 0 0 0 0 0 0 0 0 0 0 0 0 0 0 0 0 0 0 0
0 0 0 0 0 0 0 0 0 0 0 0 0 0 0 0 0 0 0 0 0 0 0 0 0 0 0 0 0 0 0 0 0 0 0 0 0 0 0 0 0 0 0
0 0 0 0 0 0 0 0 0 0 0 0 0 0 0 0 0 0 0 0 0 0 0 0 0 0 0 0 0 0 0 0 0 0 0 0 0 0 0 0 0 0 0
0 0 0 0 0 0 0 0 0 0 0 0 0 0 0 0 0 0 0 0 0 0 0 0 0 0 0 0 0 0 0 0 0 0 0 0 0 0 0 0 0 0 0
0 0 0 0 0 0 0 0 0 0 0 0 0 0 0 0 0 0 0 0 0 0 0 0 0 0 0 0 0 0 0 0 0 0 0 0 0 0 0 0 0 0 0
0 0 0 0 0 0 0 0 0 0 0 0 0 0 0 0 0 0 0 0 0 0 0 0 0 0 0 0 0 0 0 0 0 0 0 0 0 0 0 0 0 0 0
0 0 0 0 0 0 0 0 0 0 0 0 0 0 0 0 0 0 0 0 0 0 0 0 0 0 0 0 0 0 0 0 0 0 0 0 0 0 0 0 0 0 0
0 0 0 0 0 0 0 0 0 0 0 0 0 0 0 0 0 0 0 0 0 0 0 0 0 0 0 0 0 0 0 0 0 0 0 0 0 0 0 0 0 0 0
0 0 0 0 0 0 0 0 0 0 0 0 0 0 0 0 0 0 0 0 0 0 0 0 0 0 0 0 0 0 0 0 0 0 0 0 0 0 0 0 0 0 0
0 0 0 0 0 0 0 0 0 0 0 0 0 0 0 0 0 0 0 0 0 0 0 0 0 0 0 0 0 0 0 0 0 0 0 0 0 0 0 0 0 0 0
0 0 0 0 0 0 0 0 0 0 0 0 0 0 0 0 0 0 0 0 0 0 0 0 0 0 0 0 0 0 0 0 0 0 0 0 0 0 0 0 0 0 0
0 0 0 0 0 0 0 0 0 0 0 0 0 0 0 0 0 0 0 0 0 0 0 0 0 0 0 0 0 0 0 0 0 0 0 0 0 0 0 0 0 0 0
0 0 0 0 0 0 0 0 0 0 0 0 0 0 0 0 0 0 0 0 0 0 0 0 0 0 0 0 0 0 0 0 0 0 0 0 0 0 0 0 0 0 0
0 0 0 0 0 0 0 0 0 0 0 0 0 0 0 0 0 0 0 0 0 0 0 0 0 0 0 0 0 0 0 0 0 0 0 0 0 0 0 0 0 0 0
0 0 0 0 0 0 0 0 0 0 0 0 0 0 0 0 0 0 0 0 0 0 0 0 0 0 0 0 0 0 0 0 0 0 0 0 0 0 0 0 0 0 0
0 0 0 0 0 0 0 0 0 0 0 0 0 0 0 0 0 0 0 0 0 0 0 0 0 0 0 0 0 0 0 0 0 0 0 0 0 0 0 0 0 0 0
Height
5880 5879 5878 5877 5875 5874 5873 5872 5870 5868 5866 5865 5863 5861 5860 5858 5857 5856 5854 5853 5852 5851 5851 5850 5849 5849 5849 5850 5850 5850 5851 5851 5852 5853 5854 5856 5857 5858 5860 5861 5862 5863 5864
5879 5878 5877 5876 5874 5873 5871 5869 5867 5865 5863 5861 5859 5857 5855 5853 5851 5850 5848 5847 5845 5844 5844 5843 5842 5842 5841 5842 5842 5843 5843 5844 5846 5847 5848 5849 5850 5852 5854 5855 5857 5858 5860
5879 5877 5876 5874 5872 5870 5867 5865 5863 5860 5858 5856 5853 5851 5849 5847 5844 5842 5840 5839 5838 5836 5835 5835 5834 5833 5833 5833 5834 5834 5835 5836 5838 5839 5839 5840 5842 5844 5846 5848 5851 5852 5854
5878 5876 5874 5871 5869 5867 5864 5861 5858 5856 5853 5850 5847 5844 5841 5839 5836 5834 5831 5830 5828 5827 5826 5825 5825 5824 5824 5824 5824 5825 5826 5827 5829 5829 5830 5831 5833 5836 5838 5840 5843 5845 5847
5875 5873 5870 5868 5865 5863 5860 5857 5853 5850 5847 5843 5840 5836 5833 5830 5827 5824 5822 5819 5817 5816 5814 5814 5813 5813 5813 5813 5813 5814 5815 5817 5818 5818 5820 5821 5823 5826 5828 5831 5834 5837 5840
5872 5869 5866 5863 5861 5857 5854 5850 5847 5843 5839 5836 5832 5828 5824 5820 5817 5813 5810 5807 5805 5803 5801 5800 5799 5799 5799 5799 5800 5801 5803 5805 5806 5807 5808 5810 5812 5815 5817 5821 5824 5827 5831
5867 5864 5861 5858 5854 5851 5847 5843 5839 5835 5830 5826 5822 5817 5813 5808 5804 5800 5796 5793 5790 5787 5785 5784 5783 5782 5782 5783 5784 5785 5787 5790 5792 5795 5795 5797 5800 5803 5806 5809 5813 5817 5821
5863 5860 5856 5852 5848 5844 5840 5835 5831 5826 5820 5815 5810 5805 5800 5795 5790 5785 5781 5777 5773 5769 5767 5765 5764 5763 5763 5764 5765 5767 5769 5772 5775 5778 5781 5783 5786 5790 5793 5797 5801 5806 5810
5859 5855 5851 5847 5842 5838 5833 5828 5822 5817 5811 5805 5799 5793 5786 5780 5774 5768 5763 5757 5753 5748 5745 5742 5740 5740 5740 5741 5743 5746 5748 5751 5754 5759 5763 5767 5771 5775 5779 5783 5788 5793 5798
5854 5849 5845 5840 5835 5830 5824 5818 5812 5806 5800 5793 5786 5779 5772 5765 5757 5750 5742 5735 5729 5723 5718 5714 5712 5711 5711 5712 5715 5719 5724 5727 5731 5736 5742 5747 5753 5758 5763 5768 5773 5779 5785
5848 5843 5838 5832 5826 5820 5814 5808 5801 5794 5787 5779 5771 5763 5755 5746 5737 5727 5718 5709 5701 5694 5688 5683 5680 5678 5678 5680 5682 5687 5692 5698 5705 5711 5717 5724 5732 5738 5745 5751 5758 5764 5771
5842 5837 5831 5825 5819 5812 5805 5798 5790 5783 5774 5765 5756 5746 5736 5725 5714 5703 5693 5682 5673 5664 5656 5650 5646 5644 5644 5645 5648 5652 5657 5664 5672 5680 5689 5698 5706 5715 5724 5733 5740 5748 5755
5836 5830 5824 5817 5811 5804 5796 5789 5780 5771 5761 5751 5741 5730 5719 5707 5694 5681 5668 5657 5646 5636 5627 5620 5614 5610 5609 5609 5612 5615 5620 5628 5637 5646 5658 5668 5678 5689 5701 5711 5720 5729 5738
5829 5823 5816 5809 5802 5794 5786 5778 5769 5759 5748 5737 5726 5713 5700 5687 5672 5657 5643 5630 5618 5608 5599 5591 5585 5580 5577 5575 5577 5580 5584 5590 5599 5610 5623 5635 5648 5661 5674 5686 5698 5708 5718
5822 5815 5808 5801 5793 5785 5776 5766 5756 5745 5733 5721 5708 5694 5679 5663 5647 5631 5616 5603 5591 5580 5571 5562 5556 5551 5548 5546 5545 5547 5551 5556 5564 5573 5586 5600 5614 5629 5644 5658 5673 5686 5697
5815 5807 5800 5792 5784 5775 5765 5754 5743 5731 5718 5704 5689 5672 5655 5637 5620 5605 5590 5576 5564 5554 5544 5536 5528 5524 5520 5517 5517 5517 5520 5525 5532 5539 5551 5566 5580 5596 5612 5628 5645 5660 5675
5808 5801 5793 5784 5775 5764 5753 5742 5729 5716 5702 5686 5669 5650 5631 5611 5594 5579 5564 5551 5539 5528 5518 5509 5502 5496 5493 5491 5490 5490 5492 5496 5501 5509 5519 5533 5547 5562 5579 5597 5616 5634 5651
5801 5793 5784 5775 5764 5753 5741 5728 5714 5699 5683 5666 5647 5626 5606 5587 5571 5555 5541 5528 5515 5503 5492 5483 5476 5470 5467 5465 5464 5465 5467 5470 5474 5481 5490 5501 5515 5529 5546 5566 5586 5606 5625
5794 5785 5776 5765 5754 5741 5728 5714 5699 5683 5665 5645 5623 5602 5583 5566 5550 5535 5520 5505 5491 5479 5467 5458 5451 5446 5443 5441 5441 5442 5444 5448 5451 5456 5463 5472 5484 5499 5515 5535 5556 5577 5597
5786 5776 5766 5755 5743 5730 5716 5700 5683 5665 5645 5624 5602 5581 5564 5548 5532 5516 5500 5484 5469 5456 5444 5434 5426 5421 5417 5416 5417 5419 5423 5427 5431 5435 5440 5447 5457 5470 5486 5506 5526 5547 5568
5778 5768 5757 5745 5733 5719 5704 5687 5669 5650 5628 5606 5584 5565 5547 5531 5514 5498 5480 5464 5448 5433 5419 5406 5396 5391 5388 5387 5389 5394 5400 5405 5410 5414 5420 5426 5433 5444 5461 5478 5496 5517 5540
5769 5759 5747 5735 5721 5707 5691 5674 5655 5634 5612 5590 5569 5549 5531 5515 5498 5480 5461 5444 5426 5409 5392 5377 5365 5357 5354 5353 5356 5364 5374 5383 5385 5394 5402 5407 5413 5423 5437 5451 5469 5490 5512
5761 5750 5738 5725 5711 5695 5678 5660 5640 5618 5595 5574 5554 5536 5518 5500 5481 5462 5443 5424 5404 5384 5368 5353 5339 5329 5323 5322 5323 5331 5343 5354 5363 5375 5381 5389 5396 5405 5414 5428 5445 5464 5486
5753 5741 5729 5715 5700 5684 5666 5647 5627 5605 5583 5562 5542 5523 5505 5486 5467 5447 5428 5407 5385 5365 5348 5334 5319 5307 5299 5296 5296 5301 5312 5326 5340 5353 5361 5371 5380 5388 5396 5408 5423 5441 5461
5744 5732 5719 5705 5689 5673 5655 5635 5614 5592 5570 5549 5531 5512 5494 5474 5454 5434 5414 5392 5370 5351 5335 5320 5306 5293 5282 5276 5276 5279 5288 5302 5316 5331 5343 5352 5363 5372 5380 5391 5404 5420 5439
5736 5723 5709 5694 5678 5662 5643 5623 5602 5580 5559 5539 5521 5503 5484 5464 5444 5424 5403 5380 5359 5342 5327 5312 5299 5285 5274 5267 5264 5265 5272 5284 5297 5311 5326 5336 5347 5357 5366 5376 5387 5400 5418
Wind_Speed
7 7 8 9 10 11 12 14 15 17 19 20 22 24 25 26 27 28 30 31 32 34 37 40 43 45 46 45 44 44 43 42 40 37 35 32 29 27 26 25 26 27 28
7 8 10 11 12 14 16 18 20 21 23 25 26 28 29 31 32 33 34 35 35 36 36 36 38 41 44 47 49 49 48 47 45 43 41 39 36 33 30 29 28 28 29
9 11 13 15 17 19 21 23 25 26 28 29 30 32 33 34 36 37 38 39 40 41 42 42 42 42 43 44 47 50 52 53 51 49 48 46 43 39 36 34 32 31 31
13 15 17 19 21 23 25 26 28 29 30 32 33 34 35 37 38 39 40 42 43 44 45 46 47 48 48 48 48 49 51 53 55 55 54 52 50 46 43 40 37 35 34
17 19 21 22 24 25 26 28 29 31 32 34 36 37 38 39 40 41 43 44 45 47 48 49 50 51 52 53 54 53 53 53 54 57 59 58 56 54 50 47 43 40 38
20 22 24 25 26 28 29 31 33 35 37 39 40 42 43 44 45 46 48 49 51 52 54 55 56 57 57 58 59 59 59 58 57 58 59 61 62 60 57 54 50 46 43
23 25 26 28 30 32 34 36 38 40 43 45 47 49 50 51 53 55 56 58 59 61 62 63 64 64 64 64 64 64 64 64 63 62 62 62 63 64 64 61 57 53 49
26 28 29 32 34 36 38 41 44 46 49 52 54 56 58 60 61 63 65 67 68 69 70 71 72 72 72 72 72 71 70 70 69 68 68 68 66 66 67 67 64 60 56
28 30 32 34 37 39 42 45 48 51 54 57 59 61 64 66 69 71 74 75 77 79 80 81 81 81 80 80 79 78 77 77 76 75 74 74 72 70 68 69 69 66 62
31 33 36 38 41 43 46 50 52 55 58 61 64 66 69 72 75 78 80 83 85 87 89 90 90 90 89 88 87 85 84 83 83 81 80 79 78 76 73 71 71 71 68
34 37 40 43 46 49 52 55 58 61 64 67 70 72 75 78 81 84 87 90 92 94 95 96 97 97 96 95 93 92 90 88 88 88 87 85 84 82 80 76 74 73 72
37 40 43 46 50 53 56 59 62 65 68 72 74 77 81 84 87 90 93 96 98 99 100 100 100 100 99 98 97 96 95 94 93 93 92 91 90 88 86 83 79 76 75
41 44 47 50 53 55 58 61 64 68 71 74 77 81 84 88 92 96 99 100 101 101 100 99 99 99 98 97 96 96 96 96 96 96 96 96 95 93 91 89 86 81 78
45 48 50 52 54 56 60 63 66 70 73 76 80 84 88 93 97 100 102 103 102 100 98 96 94 93 92 91 91 91 91 93 94 96 98 99 99 98 97 94 92 88 83
47 49 51 53 55 58 62 65 69 72 75 79 84 89 93 98 101 102 101 100 97 94 91 89 87 86 84 84 84 84 84 86 88 91 95 98 101 102 102 100 97 94 90
48 50 52 54 57 61 64 68 71 74 78 83 88 93 97 100 100 99 95 91 88 85 83 82 81 80 79 78 78 78 79 79 81 85 89 94 98 103 105 105 102 100 96
49 51 52 55 59 63 67 70 73 77 81 87 91 95 98 98 95 90 86 83 81 80 79 79 77 76 74 73 72 72 72 73 75 79 84 89 95 101 106 108 107 105 101
49 51 53 57 62 65 69 72 76 80 85 90 93 96 96 92 87 83 80 79 79 78 77 74 71 68 67 66 66 66 66 66 68 73 79 86 91 98 105 110 111 109 106
49 52 56 60 64 67 71 74 78 83 88 92 95 95 90 85 81 79 79 79 79 76 73 69 66 64 62 62 62 63 63 62 62 65 72 81 88 95 103 110 113 113 111
51 54 58 61 65 69 72 76 81 85 89 93 94 90 84 80 79 79 79 78 76 73 71 70 69 68 66 64 63 63 63 62 61 61 64 72 83 91 99 108 115 117 116
52 56 59 63 67 70 73 77 82 86 90 93 90 85 80 78 78 78 78 75 73 74 75 75 74 73 73 72 68 66 65 65 64 63 61 63 73 86 95 104 114 119 119
54 57 61 64 68 71 75 79 82 87 90 90 86 81 78 78 78 78 76 74 75 76 73 70 68 67 67 71 73 71 69 68 69 65 62 61 64 76 89 99 110 118 121
55 58 62 66 69 72 76 80 83 88 90 87 82 78 77 78 79 77 75 76 77 73 68 64 61 59 58 60 66 71 73 73 72 68 66 63 61 65 79 93 104 115 120
55 59 63 67 70 73 76 80 84 87 87 84 79 77 77 78 77 75 76 77 75 68 62 57 53 50 48 48 53 61 69 72 73 70 69 66 62 61 68 83 96 108 117
56 59 64 68 70 73 77 80 84 86 85 81 77 76 76 77 75 74 76 76 70 62 57 54 49 43 38 36 38 46 57 66 70 70 68 67 64 61 62 73 88 100 111
56 60 64 68 71 73 77 81 84 85 82 79 76 75 75 75 73 74 76 73 64 57 53 50 46 39 32 26 25 30 40 53 63 67 67 65 64 63 61 64 78 92 103
Wind_Direction
342 335 329 323 318 314 310 306 302 300 298 296 294 292 290 289 287 287 285 283 280 277 273 269 266 263 260 258 258 257 257 257 258 259 260 259 255 251 246 242 237 233 231
343 335 329 322 316 312 308 305 302 300 298 296 294 293 291 290 288 287 285 284 283 281 279 276 274 271 267 263 258 256 255 254 254 255 257 256 255 252 248 244 241 237 234
332 327 322 318 315 312 309 306 303 301 299 297 295 293 291 290 289 287 285 284 283 281 280 278 276 274 271 269 265 260 256 254 252 251 252 253 253 252 249 245 241 238 236
329 325 320 316 313 310 307 305 303 301 300 298 296 294 293 291 289 288 286 285 283 282 280 278 276 274 272 270 268 265 262 258 254 251 249 249 250 250 249 246 242 238 235
327 322 318 315 312 309 307 306 304 303 301 300 298 295 293 292 290 289 288 286 285 284 283 281 279 276 274 271 268 265 263 261 258 255 251 248 247 247 248 246 244 240 236
324 321 318 315 313 311 310 309 308 306 304 302 299 297 294 293 291 290 289 288 287 286 285 283 282 279 277 274 270 267 263 260 258 257 254 250 247 245 245 245 244 241 238
323 320 318 316 315 314 313 311 309 308 307 305 303 301 298 296 295 293 292 290 289 288 287 285 283 282 279 276 273 269 265 261 257 255 254 252 249 246 244 243 243 242 239
320 318 317 317 317 316 314 313 312 311 310 308 306 304 301 299 297 295 293 291 289 287 286 284 283 281 279 277 274 271 267 263 259 254 252 251 249 247 244 242 241 241 239
318 318 318 318 316 315 314 314 313 311 309 307 305 303 301 299 296 294 292 290 289 287 286 284 283 281 278 276 273 270 267 264 260 256 252 249 247 246 244 242 240 239 238
320 321 320 318 317 316 315 314 313 311 309 307 306 303 301 299 297 295 293 292 290 289 287 286 284 283 281 278 274 270 266 263 260 257 253 249 245 244 243 242 240 238 237
323 323 322 320 319 318 317 315 314 312 310 308 306 304 302 301 299 297 296 294 293 291 290 288 286 284 282 279 276 272 268 263 259 256 253 249 245 242 240 239 239 238 237
324 324 322 320 319 317 316 315 313 312 310 309 307 306 304 303 301 299 298 297 295 294 292 290 288 286 283 280 276 273 269 265 260 255 251 248 244 241 238 237 236 236 235
324 323 322 320 318 317 315 314 313 312 311 310 308 307 305 303 301 300 298 297 296 294 292 290 288 286 283 279 276 272 268 264 260 255 250 245 242 239 237 234 233 233 233
324 323 322 320 318 317 316 315 314 313 312 310 309 307 305 304 302 300 299 298 296 294 292 290 287 284 281 277 274 270 267 263 258 253 248 243 239 237 234 232 231 230 230
323 322 321 319 318 317 316 316 315 314 313 312 310 309 307 305 302 301 300 298 296 294 292 289 286 282 279 275 272 268 264 259 255 250 245 241 237 234 231 230 229 228 227
323 321 320 319 318 318 317 317 316 315 314 314 312 311 308 305 303 302 301 300 297 295 292 289 286 282 278 275 271 267 263 258 253 248 243 238 234 231 229 227 226 225 225
321 320 319 319 319 318 318 318 317 317 316 315 313 311 308 307 307 306 305 303 300 297 294 291 287 282 278 273 269 265 262 257 252 247 242 237 232 228 226 224 223 223 222
320 319 319 320 320 320 320 320 320 319 318 316 314 312 312 312 311 310 308 306 303 300 296 292 287 282 276 271 266 261 258 255 252 247 241 236 231 227 223 222 221 220 220
320 320 320 321 321 321 322 322 322 321 320 318 316 316 316 316 315 314 312 309 306 302 298 293 287 281 275 269 263 257 253 251 249 246 241 236 231 227 222 219 218 218 218
321 321 321 322 322 323 324 324 324 323 321 320 319 319 320 319 318 317 315 312 308 304 299 293 287 280 274 268 261 255 250 246 245 244 242 238 232 227 223 219 217 216 216
323 323 323 324 324 325 326 326 326 324 323 322 322 322 322 322 321 319 317 314 311 307 301 295 288 280 272 266 260 253 247 243 242 241 240 239 235 228 223 219 216 215 214
324 324 325 325 326 327 328 328 327 326 325 325 325 325 325 325 324 323 321 319 315 312 307 301 294 286 276 266 258 251 244 241 239 238 238 238 237 232 224 220 217 215 213
326 326 326 327 329 330 330 330 329 328 327 327 328 328 328 328 327 327 326 324 321 318 313 309 302 293 282 270 259 250 242 238 237 236 236 236 237 235 228 221 218 215 214
327 327 328 329 331 332 332 331 332 331 330 330 331 331 331 331 331 331 331 329 327 324 322 320 315 305 292 277 262 251 242 236 233 232 234 234 235 235 232 225 219 216 215
329 329 330 332 333 334 334 334 334 333 332 333 334 334 334 334 335 335 336 334 332 331 330 330 328 321 308 290 269 252 242 235 231 230 230 232 233 234 233 228 221 217 216
332 332 333 334 335 335 336 336 335 335 335 335 336 336 337 338 339 340 340 339 337 336 337 338 340 339 331 312 285 257 241 233 229 227 227 228 231 233 233 230 224 219 216